Regional Weather Roundup
Issued by NWS Tiyan, Guam

Home | Current Version | Previous Version | Text Only | Print | Product List | Glossary On
Versions: 1 2 3 4 5 6 7 8 9 10 11 12 13 14 15 16 17 18 19 20 21 22 23 24 25 26 27 28 29 30 31 32 33 34 35 36 37 38 39 40 41 42 43 44 45 46 47 48 49
000
ASGM40 PGUM 200112
RWRGUM
WEATHER ROUNDUP FOR THE MARIANAS
NATIONAL WEATHER SERVICE TIYAN GU
1100 AM CHST SAT SEP 20 2014

GUZ001>004-200200-
MARIANA ISLANDS-

CITY           SKY/WX    TMP DP  RH WIND       PRES   REMARKS
GUAM AIRPORT   MOSUNNY   88  75  66 E13       29.86F HX  97
ANDERSEN AFB   MOSUNNY   84  77  79 E10       29.86F HX  94
ROTA AIRPORT   MOSUNNY   81  79  94 E10       29.87F
TINIAN AP      PTSUNNY   88  79  74 NE12      29.84F HX 102
SAIPAN AP      MOSUNNY   84  79  84 E10       29.86S HX  96

$$



USA.gov is the U.S. government's official web portal to all federal, state and local government web resources and services.